Fort Myers, FL

8:45 AM EST on November 23, 2017 (GMT -0500)
Page

Weather History for KFMY - October, 2012

Change the Weather History Date:

Thursday, October 11, 2012

  Actual Average Record
Temperature  
Mean Temperature 78 °F 79 °F  
Max Temperature 87 °F 88 °F 93 °F (1959)
Min Temperature 69 °F 71 °F 56 °F (1903)
Degree Days  
Heating Degree Days 0 0  
Month to date heating degree days 0 0  
Since 1 July heating degree days 0 0  
Cooling Degree Days 13 14  
Month to date cooling degree days 190 165  
Year to date cooling degree days 3866 3411  
Growing Degree Days 28 (Base 50)    
Moisture  
Dew Point 66 °F    
Average Humidity 70    
Maximum Humidity 90    
Minimum Humidity 48    
Precipitation  
Precipitation 0.00 in 0.09 in 2.21 in (1936)
Month to date precipitation 4.77 1.35  
Year to date precipitation 46.61 50.73  
Sea Level Pressure  
Sea Level Pressure 30.10 in    
Wind  
Wind Speed 9 mph (ENE)    
Max Wind Speed 15 mph    
Max Gust Speed 21 mph    
Visibility 10 miles    
Events      
T = Trace of Precipitation, MM = Missing Value Source: NWS Daily Summary

Daily Weather History Graph

Daily Weather History Graph

Search for Another Location

Airport or City:

Trip Planner

Search our weather history database for the weather conditions in past years. The results will help you decide how hot, cold, wet, or windy it might be!

Date:

Astronomy

Oct. 11, 2012 Rise Set
Actual Time 7:24 AM EDT 7:02 PM EDT
Civil Twilight 7:01 AM EDT 7:25 PM EDT
Nautical Twilight 6:34 AM EDT 7:52 PM EDT
Astronomical Twilight 6:07 AM EDT 8:19 PM EDT
Moon 3:24 AM EDT (10/11) 4:19 PM EDT (10/11)
Length of Visible Light 12h 24m
Length of Day
11h 37m
Waning Crescent, 18% of the Moon is Illuminated
Oct 11
Waning Crescent
Oct 15
New
Oct 21
First Quarter
Oct 29
Full
Nov 6
Last Quarter

Hourly Weather History & Observations

Time (EDT) Temp. Heat Index Dew Point Humidity Pressure Visibility Wind Dir Wind Speed Gust Speed Precip Events Conditions
12:53 AM 73.9 °F - 69.1 °F 85% 30.09 in 10.0 mi ENE 5.8 mph - N/A   Clear
1:53 AM 73.0 °F - 68.0 °F 84% 30.08 in 10.0 mi NE 5.8 mph - N/A   Clear
2:53 AM 73.0 °F - 66.9 °F 81% 30.07 in 10.0 mi ENE 6.9 mph - N/A   Clear
3:53 AM 72.0 °F - 66.9 °F 84% 30.07 in 10.0 mi NE 6.9 mph - N/A   Clear
4:53 AM 71.1 °F - 66.0 °F 84% 30.07 in 10.0 mi ENE 8.1 mph - N/A   Clear
5:53 AM 71.1 °F - 66.0 °F 84% 30.08 in 10.0 mi ENE 6.9 mph - N/A   Clear
6:53 AM 70.0 °F - 66.0 °F 87% 30.10 in 10.0 mi ENE 4.6 mph - N/A   Clear
7:53 AM 70.0 °F - 66.0 °F 87% 30.11 in 10.0 mi NE 5.8 mph - N/A   Clear
8:53 AM 73.9 °F - 66.0 °F 76% 30.13 in 10.0 mi NE 9.2 mph - N/A   Clear
9:53 AM 77.0 °F - 66.0 °F 69% 30.14 in 10.0 mi NE 10.4 mph - N/A   Clear
10:53 AM 80.1 °F 81.9 °F 64.9 °F 60% 30.14 in 10.0 mi ENE 12.7 mph - N/A   Clear
11:53 AM 82.0 °F 83.8 °F 64.9 °F 56% 30.14 in 10.0 mi ENE 11.5 mph - N/A   Clear
12:53 PM 82.9 °F 84.6 °F 64.9 °F 54% 30.12 in 10.0 mi ENE 9.2 mph 18.4 mph N/A   Clear
1:53 PM 84.0 °F 85.8 °F 64.9 °F 53% 30.10 in 10.0 mi ENE 10.4 mph - N/A   Clear
2:53 PM 86.0 °F 87.6 °F 64.9 °F 49% 30.09 in 10.0 mi NE 12.7 mph - N/A   Clear
3:53 PM 86.0 °F 87.6 °F 64.9 °F 49% 30.08 in 10.0 mi NE 11.5 mph - N/A   Clear
4:53 PM 86.0 °F 87.3 °F 64.0 °F 48% 30.08 in 10.0 mi ENE 8.1 mph - N/A   Partly Cloudy
7:53 PM 80.1 °F 81.9 °F 64.9 °F 60% 30.10 in 10.0 mi ENE 8.1 mph - N/A   Clear
8:53 PM 78.1 °F - 66.0 °F 66% 30.12 in 10.0 mi ENE 11.5 mph - N/A   Clear
9:53 PM 75.9 °F - 66.0 °F 71% 30.14 in 10.0 mi ENE 8.1 mph - N/A   Clear
11:53 PM 73.9 °F - 64.9 °F 73% 30.13 in 10.0 mi ENE 5.8 mph - N/A   Clear